Location: Caltech
(34.1382°N, 118.1253°W)
Time: 17:15:32
(UTC-07:00)

Iridium 3 - Visible Passes

Search period start: 24 July 2016 00:00
Search period end: 03 August 2016 00:00
Orbit: 776 x 779 km, 86.4° (Epoch: 24 July)

Date Brightness Start Highest point End Pass type
(mag) Time Alt. Az. Time Alt. Az. Time Alt. Az.
29 Jul 8.5 05:15:38 10° ESE 05:18:28 15° E 05:21:18 10° NE visible
01 Aug 8.2 05:14:27 10° SE 05:18:23 22° E 05:22:20 10° NNE visible
02 Aug 8.7 04:43:45 10° E 04:45:11 11° ENE 04:46:38 10° ENE visible
